User: anonymous   Login
Location: Meanaryar
(48.4161°N, 4.7315°W)
Time: 20:31:14
(UTC+00:00)
Language:

Cosmos 1842 - Orbit

View from above orbital plane
View from above orbital plane
View from above satellite
View from above satellite

Ground track
Ground track

The orbit data is extracted from the following two-line orbital elements,

1 17911U 87038A   21216.24558034  .00001279  00000-0  71153-4 0  9998
2 17911  82.5241 156.2483 0013048  85.1172 275.1548 15.12712460869534
Epoch (UTC): 04 August 2021 05:53:38
Eccentricity: 0.0013048
inclination: 82.5241°
perigee height: 519 km
apogee height: 537 km
right ascension of ascending node: 156.2483°
argument of perigee: 85.1172°
revolutions per day: 15.12712460
mean anomaly at epoch: 275.1548°
orbit number at epoch: 86953

The dashed part of the orbit path shows where the satellite is in the earth's shadow,  

DLR